Temperature
5 4 4 5 5 6 6 5 5 5 5 5 4 5 5 5 5 4 5 5 5 6 6 7 7 7 7 7 7 7 7 7 7 7 7 7 7 7 7 7 7 7 7 7
4 4 5 5 5 5 5 5 5 4 5 5 4 4 4 4 4 5 4 4 5 5 6 6 6 6 6 6 7 7 7 7 7 6 6 6 6 6 6 6 6 6 7 6
5 5 5 5 5 5 5 4 4 4 4 4 4 4 4 4 4 4 4 4 4 5 5 5 6 6 6 6 6 6 6 6 6 6 6 5 6 6 6 6 6 6 6 6
4 4 5 5 4 5 4 5 4 4 3 3 3 4 4 3 3 3 3 3 4 4 4 5 5 5 5 5 5 5 5 6 5 5 5 5 5 5 5 5 6 6 6 6
3 4 4 4 4 4 4 4 4 4 3 2 2 3 3 3 3 3 3 3 3 4 4 4 5 5 5 5 5 5 5 5 5 5 5 5 5 5 5 5 5 5 5 5
3 4 4 4 4 4 4 3 3 2 2 3 3 2 3 2 3 3 2 3 3 3 3 4 4 4 4 4 4 4 4 4 4 4 4 4 4 4 4 4 4 4 5 5
3 4 3 4 4 4 3 3 3 3 2 3 2 2 3 3 2 2 2 2 2 3 3 3 3 3 4 4 4 4 4 4 4 4 4 4 4 4 4 4 4 4 4 4
3 3 3 3 3 3 3 3 3 4 3 2 2 1 2 2 2 2 2 2 2 2 2 3 3 3 3 3 3 3 3 3 3 3 3 3 3 3 3 3 3 3 3 3
2 3 3 3 3 3 2 2 2 1 0 1 1 1 2 2 2 1 1 1 2 2 2 2 2 2 2 3 3 3 3 3 3 3 3 3 3 3 3 3 3 3 3 3
2 2 2 2 3 2 2 1 0 1 2 2 2 1 2 2 2 1 0 1 1 2 2 2 2 2 2 2 2 2 2 2 2 2 2 2 2 3 3 3 3 3 2 2
1 1 1 2 2 1 1 1 0 -0 0 1 1 3 2 2 2 1 0 1 1 1 1 2 2 2 2 2 2 2 2 2 2 2 2 2 2 2 2 2 2 2 2 2
0 -0 0 1 1 1 1 1 0 1 0 -1 -0 2 2 1 1 1 1 1 1 1 1 1 1 1 1 1 1 1 1 1 1 1 1 2 2 2 2 2 2 2 2 2
0 -0 1 2 1 0 0 0 -0 -1 -1 -2 -0 2 2 0 1 1 1 1 1 1 1 1 1 1 1 1 1 1 1 1 1 1 1 1 1 1 2 2 2 1 1 1
0 -1 0 2 1 -0 -1 -0 -1 -1 -1 -1 -0 1 2 1 0 0 1 1 1 1 1 0 0 0 0 0 0 0 0 1 0 0 0 0 0 1 1 1 1 1 1 1
-0 -1 -2 -1 -1 -1 -1 -0 -1 -1 -1 -0 0 -0 1 1 -0 0 0 0 0 0 0 0 -0 -0 -0 -0 -0 -0 -0 0 -0 0 -0 -0 -0 0 0 1 1 1 1 1
-2 -2 -2 -1 -1 -1 -1 -0 -1 -1 -0 -1 -0 0 1 1 0 -0 -0 -0 -0 -0 -0 -0 -0 -0 -1 -1 -1 -1 -1 -1 -0 -0 -0 -0 -0 -0 -0 -0 0 0 0 0
-3 -3 -2 -1 -2 -1 -0 -0 -0 -1 -1 -1 -0 1 0 -0 -1 -1 -0 -0 -0 -0 -0 -0 -1 -1 -1 -1 -1 -1 -1 -1 -1 -1 -1 -1 -1 -1 -1 -1 -1 -0 -0 -0
-3 -3 -3 -3 -2 -0 1 -0 -0 -1 -1 -1 -1 -1 -1 -1 -0 0 0 -0 -0 -0 -0 -1 -1 -1 -1 -1 -1 -1 -1 -1 -1 -1 -1 -1 -1 -1 -1 -1 -1 -1 -1 -1
-3 -3 -4 -3 -2 -1 0 -0 -1 -2 -1 -1 -1 -1 -1 -1 -1 -0 1 0 -0 -0 -1 -1 -1 -1 -1 -1 -2 -2 -2 -2 -2 -2 -2 -2 -2 -2 -2 -2 -2 -2 -2 -1
-4 -4 -3 -4 -2 -1 1 -1 -1 -1 -1 -1 -1 -2 -2 -2 -2 -1 0 -0 -1 -1 -1 -1 -1 -2 -2 -2 -2 -2 -2 -2 -2 -2 -2 -2 -2 -2 -2 -2 -2 -2 -2 -2
-4 -4 -3 -3 -3 -2 -1 -2 -1 -0 0 -0 -1 -1 -2 -3 -2 -1 -1 -1 -1 -1 -1 -2 -2 -2 -2 -2 -2 -2 -2 -2 -2 -3 -3 -3 -3 -3 -3 -3 -3 -3 -3 -3
-3 -4 -4 -4 -3 -1 -1 -2 -1 -1 -0 -0 -0 -1 -1 -1 -1 -1 -1 -1 -2 -2 -2 -2 -2 -2 -2 -2 -2 -2 -3 -3 -3 -3 -3 -3 -3 -3 -3 -3 -3 -3 -3 -3
-4 -3 -3 -3 -1 -1 -1 -1 -0 -0 -1 -0 -1 -1 -1 -1 -2 -2 -2 -2 -2 -2 -2 -3 -3 -3 -3 -3 -3 -3 -3 -3 -3 -3 -3 -3 -3 -3 -3 -3 -3 -3 -3 -4
-4 -4 -4 -4 -3 -2 -1 -0 0 -0 -0 -0 -1 -1 -1 -2 -2 -2 -2 -2 -2 -3 -3 -3 -3 -3 -3 -3 -3 -3 -3 -3 -3 -3 -3 -4 -4 -4 -4 -4 -4 -4 -4 -4
-3 -5 -5 -4 -4 -3 -1 -0 0 -0 -1 -1 -1 -1 -2 -2 -2 -2 -2 -2 -3 -3 -3 -3 -4 -3 -3 -3 -3 -4 -4 -4 -4 -4 -4 -4 -4 -4 -4 -4 -4 -5 -5 -5
-4 -4 -4 -2 -2 -3 -1 0 -0 -1 -1 -1 -2 -2 -2 -2 -2 -2 -2 -3 -3 -3 -3 -4 -4 -4 -4 -4 -4 -4 -4 -4 -4 -4 -4 -4 -4 -4 -4 -4 -4 -5 -5 -5
Wind_Speed
3 4 1 3 4 3 4 4 4 3 2 2 5 9 9 6 4 4 4 4 4 4 4 3 2 2 2 2 2 2 3 3 2 1 1 1 2 2 2 3 4 4 3 3
4 1 3 2 1 1 2 3 4 4 2 2 5 9 7 5 4 4 4 4 4 3 3 3 3 2 2 2 3 2 2 3 2 2 2 2 2 2 2 3 4 4 3 4
3 1 1 1 0 0 2 4 4 3 4 2 4 7 3 2 1 2 2 2 2 2 3 3 3 2 2 3 3 3 3 3 3 2 1 2 1 1 1 2 2 3 4 4
0 2 1 0 1 2 4 3 3 2 1 3 1 5 5 3 3 3 4 3 3 3 3 3 3 3 3 3 3 3 4 3 3 2 1 2 2 3 3 3 3 3 4 4
1 1 1 1 2 1 3 1 2 2 2 2 1 3 7 3 4 5 4 3 3 3 3 3 3 3 3 4 4 3 3 4 3 2 2 2 3 3 3 3 3 3 3 3
1 1 0 1 1 1 1 2 3 3 2 3 4 4 6 3 5 5 4 4 4 4 3 3 3 3 3 4 4 3 3 4 4 3 3 3 4 4 4 4 3 3 2 2
3 2 1 1 2 2 3 3 3 3 2 5 1 3 8 5 4 4 4 4 4 4 3 3 3 3 4 4 4 4 3 4 4 4 4 4 4 4 5 4 4 3 3 3
1 4 2 1 1 1 0 3 4 3 4 4 2 5 6 4 3 2 2 2 3 4 3 3 3 3 4 4 4 4 4 5 4 4 5 4 4 4 4 4 4 4 4 4
2 4 2 1 1 3 2 1 3 4 1 3 5 6 7 2 3 3 2 3 4 4 4 4 3 3 4 4 5 5 5 5 5 5 5 4 5 5 4 4 4 4 3 3
3 2 3 2 2 3 2 4 4 3 1 4 6 5 4 5 4 3 3 4 4 4 5 5 4 4 4 4 5 5 5 5 5 5 5 5 5 4 4 4 5 4 4 3
2 2 3 2 2 3 2 2 2 2 2 3 4 6 4 4 3 3 4 4 4 4 5 5 5 4 4 4 4 5 5 5 5 5 5 5 5 4 4 4 4 4 3 2
2 2 3 5 2 1 3 4 5 3 3 3 3 7 3 3 3 3 4 4 4 5 5 5 5 4 4 4 5 5 5 5 5 5 5 5 5 4 4 4 4 3 3 2
3 3 2 4 3 2 1 3 4 3 3 4 4 8 2 3 3 3 4 5 5 5 5 5 4 4 5 5 5 6 5 5 5 4 4 4 4 4 4 4 4 3 2 2
3 3 5 6 4 3 3 3 3 5 4 5 9 11 9 8 8 7 6 6 6 5 5 5 5 5 5 5 6 6 6 5 5 4 4 4 5 4 4 4 4 3 2 2
3 3 4 6 6 4 6 7 7 9 9 9 9 10 13 9 8 7 6 6 6 5 5 5 5 5 6 6 6 6 6 5 5 4 4 4 4 4 3 4 4 3 3 2
2 2 1 4 4 5 8 10 10 11 9 11 12 14 10 7 5 6 6 6 6 6 6 6 6 6 6 6 6 6 6 5 5 4 4 4 4 4 4 4 4 3 3 2
2 3 1 4 4 4 8 9 11 8 8 8 12 12 6 7 7 7 7 6 6 7 7 7 6 6 6 6 5 6 5 5 4 4 4 4 4 4 4 4 4 4 3 2
4 4 2 2 2 6 7 3 6 8 9 9 9 8 7 8 8 6 6 5 6 6 6 6 6 6 6 5 5 5 4 4 4 4 4 4 4 4 4 4 4 4 3 2
4 5 3 2 3 9 8 3 4 5 7 7 9 9 7 4 5 5 4 3 4 5 5 5 5 5 5 5 4 4 3 3 4 4 4 4 4 4 4 4 4 3 3 3
2 3 4 3 3 6 6 1 2 3 6 4 6 6 4 1 3 5 3 4 5 5 4 4 4 4 4 5 4 3 3 3 4 4 4 4 3 3 4 4 3 3 2 3
3 2 5 6 6 9 6 2 4 3 6 3 3 4 4 5 6 6 6 5 4 4 4 4 3 3 4 4 3 2 3 3 4 4 4 4 4 3 3 3 2 2 3 3
8 6 6 5 6 9 4 5 6 6 2 1 2 3 5 5 5 5 5 5 4 4 4 3 3 4 4 3 3 2 3 4 3 3 3 4 4 4 3 3 3 2 2 2
8 9 6 9 9 4 5 6 5 2 3 3 3 4 4 4 5 5 5 4 4 4 3 3 3 4 4 4 2 2 4 3 3 3 3 3 4 4 4 3 3 2 2 2
5 4 4 7 10 7 7 7 6 5 5 5 4 4 4 5 5 5 5 4 4 3 3 3 3 4 5 4 3 3 3 2 2 2 3 3 3 4 4 3 3 2 2 2
7 7 5 8 8 7 6 7 7 6 4 4 4 4 5 5 5 5 4 4 4 3 3 3 3 4 5 5 3 3 2 1 2 2 2 3 3 3 3 3 3 3 2 2
7 8 8 9 6 6 6 4 3 4 5 5 5 4 4 5 5 5 5 4 3 3 3 3 4 4 5 4 3 2 2 1 1 2 2 2 2 2 2 3 4 6 5 6
Wind_Direction
30 73 170 226 213 204 189 206 251 261 299 293 255 267 277 280 269 272 276 272 268 276 289 310 316 335 1 3 353 336 326 314 311 304 284 265 265 266 269 278 273 267 272 274
49 338 264 251 222 184 205 233 258 287 323 287 281 279 275 267 258 256 262 268 267 301 327 341 344 352 357 341 329 324 315 314 301 280 272 250 249 253 250 280 285 275 275 268
157 257 306 186 206 216 248 220 235 261 327 337 318 301 274 279 295 312 297 286 294 289 303 316 328 329 337 332 320 316 309 312 311 303 306 306 300 302 285 286 270 282 285 274
98 325 350 271 240 216 257 236 227 245 318 299 28 296 278 276 298 300 313 322 309 315 310 308 319 327 328 315 317 320 320 316 315 321 299 271 264 267 273 274 261 275 291 283
264 347 16 237 269 227 232 261 195 193 181 294 263 237 286 308 285 287 295 299 307 315 311 309 312 312 321 320 320 321 320 326 322 310 294 277 272 267 282 286 275 276 286 286
264 258 175 231 307 218 204 68 79 65 86 277 229 199 280 257 258 285 292 303 309 314 318 320 326 337 338 336 332 329 328 323 322 309 293 284 275 275 285 280 272 275 277 272
330 305 341 39 33 30 50 74 28 358 350 256 216 214 256 261 260 255 265 284 299 308 316 319 327 333 332 331 328 326 320 315 314 310 295 280 274 262 258 260 262 268 280 279
330 295 295 358 160 169 143 130 152 217 249 288 289 241 260 276 287 284 272 283 313 321 318 314 308 312 314 316 319 319 314 309 307 302 295 284 276 265 258 256 259 260 263 262
185 266 331 347 334 133 124 143 149 136 158 281 274 283 300 298 324 345 349 341 318 315 317 314 311 314 313 312 308 303 306 306 303 299 295 293 287 276 271 270 266 269 268 264
157 255 300 319 47 36 116 136 101 123 199 274 289 276 271 291 297 315 322 309 303 313 322 322 316 316 311 305 304 307 304 296 298 300 298 299 287 282 276 270 269 270 265 255
117 180 305 349 191 193 111 114 117 135 171 193 281 275 231 231 255 260 269 286 292 301 311 315 318 311 312 312 312 309 309 305 306 306 304 304 301 298 293 275 266 268 268 257
130 133 266 260 257 204 182 175 153 166 236 208 233 272 271 248 272 266 277 290 296 297 300 304 312 322 322 320 318 312 310 307 307 311 314 311 309 309 302 291 280 276 270 259
141 124 344 338 347 1 252 200 179 153 149 191 213 267 315 343 323 299 285 290 299 303 312 318 322 323 324 325 325 323 320 313 315 318 318 317 315 310 307 308 306 296 281 270
120 146 191 219 242 219 248 233 189 175 205 231 234 261 290 307 310 310 304 297 300 302 307 313 313 313 316 319 322 324 322 318 320 323 323 317 307 304 309 318 311 304 295 279
111 202 235 254 257 243 244 245 215 212 218 228 252 257 272 285 288 291 294 298 304 308 307 306 309 312 315 320 324 326 321 322 325 328 322 310 307 313 321 325 316 311 305 297
111 189 254 279 258 255 265 253 235 235 235 242 262 270 272 284 288 292 293 292 295 300 303 307 313 316 315 317 320 323 319 323 328 324 317 318 324 327 326 326 324 322 314 308
158 145 169 274 310 319 272 241 218 220 218 212 239 255 291 300 292 283 282 282 281 290 299 302 305 306 306 310 314 314 313 321 325 322 326 328 327 327 329 330 327 324 316 319
166 157 176 281 11 252 252 218 205 221 242 228 244 263 268 270 280 274 267 265 281 293 298 299 301 303 307 309 314 315 316 322 324 326 330 330 328 327 329 326 327 329 332 332
181 166 162 177 259 277 286 250 184 202 263 231 236 260 277 298 310 289 259 257 267 278 289 291 293 295 303 309 315 322 324 329 332 332 331 328 325 325 328 327 328 325 331 336
129 153 163 172 225 253 260 244 158 121 283 248 219 248 268 350 307 283 296 305 302 304 299 300 305 308 310 313 321 326 326 335 330 326 326 329 328 325 322 318 321 329 335 334
162 176 201 209 236 263 257 192 131 166 262 276 212 239 219 214 236 275 304 306 303 306 307 312 313 312 308 313 324 324 327 321 318 329 338 342 339 328 321 328 332 337 343 345
184 185 200 188 224 256 201 147 190 226 266 247 240 243 234 246 273 292 297 299 307 315 320 322 322 316 318 319 319 311 309 311 325 340 348 347 342 338 341 346 339 337 350 0
204 198 195 201 222 248 188 208 227 223 242 243 243 255 243 256 269 283 291 292 299 304 311 322 319 316 320 321 313 292 302 319 337 351 351 345 345 344 342 340 335 336 345 358
236 193 205 250 260 255 246 248 253 241 238 248 244 251 242 251 264 274 286 292 298 303 309 317 318 313 313 318 315 290 304 329 350 347 343 348 350 345 345 343 340 340 339 341
217 180 211 249 267 289 269 239 244 243 242 259 264 249 245 247 261 261 273 279 280 290 298 299 295 296 301 308 309 310 318 346 356 344 347 348 346 341 345 349 344 339 326 321
197 191 201 233 230 220 255 255 232 231 243 244 251 263 261 244 253 260 264 269 270 275 287 292 294 294 298 303 306 313 320 331 354 343 344 339 336 343 351 354 359 0 358 357
Height
1480 1485 1488 1487 1487 1486 1487 1490 1491 1488 1486 1486 1485 1481 1477 1476 1476 1474 1473 1472 1471 1471 1472 1473 1472 1472 1471 1472 1472 1472 1472 1472 1472 1471 1470 1470 1470 1470 1470 1470 1470 1470 1471 1471
1485 1488 1487 1486 1486 1486 1487 1489 1490 1488 1486 1486 1485 1480 1475 1473 1473 1472 1471 1470 1469 1468 1469 1469 1469 1469 1469 1469 1469 1469 1469 1469 1469 1468 1467 1467 1466 1466 1466 1466 1466 1466 1466 1466
1485 1487 1485 1486 1486 1487 1487 1489 1489 1490 1488 1486 1486 1478 1475 1471 1471 1470 1469 1468 1467 1467 1466 1466 1466 1466 1466 1466 1466 1466 1466 1466 1465 1465 1464 1463 1463 1462 1462 1462 1462 1462 1462 1462
1487 1487 1486 1486 1486 1486 1487 1486 1487 1488 1491 1493 1491 1489 1476 1473 1471 1469 1467 1466 1465 1465 1464 1464 1463 1463 1462 1463 1463 1463 1463 1462 1462 1461 1461 1459 1458 1458 1458 1458 1458 1458 1458 1458
1488 1488 1487 1487 1486 1487 1486 1485 1487 1488 1491 1495 1493 1494 1478 1474 1471 1468 1466 1465 1464 1464 1463 1462 1461 1461 1461 1460 1460 1460 1460 1459 1459 1458 1457 1456 1455 1455 1455 1454 1454 1453 1453 1453
1488 1487 1487 1487 1486 1486 1486 1487 1488 1492 1494 1495 1491 1493 1481 1475 1469 1466 1465 1464 1463 1462 1461 1460 1460 1459 1459 1458 1458 1457 1457 1456 1455 1455 1453 1452 1451 1451 1451 1450 1449 1449 1449 1449
1489 1488 1487 1486 1486 1487 1488 1491 1495 1494 1500 1494 1491 1490 1479 1469 1466 1465 1464 1462 1461 1461 1460 1458 1458 1457 1456 1456 1455 1454 1454 1453 1452 1451 1450 1449 1448 1448 1447 1446 1446 1445 1444 1444
1493 1492 1488 1487 1487 1489 1490 1491 1497 1496 1498 1495 1492 1490 1474 1467 1465 1463 1462 1461 1460 1459 1458 1457 1456 1455 1454 1454 1453 1452 1451 1449 1448 1447 1446 1446 1445 1445 1444 1443 1442 1441 1440 1439
1494 1492 1489 1487 1487 1488 1491 1494 1495 1503 1507 1505 1492 1485 1473 1466 1464 1463 1462 1460 1459 1458 1457 1456 1455 1454 1453 1452 1451 1449 1447 1446 1445 1444 1443 1442 1441 1441 1440 1439 1439 1437 1436 1435
1492 1495 1491 1489 1488 1489 1490 1494 1499 1502 1499 1495 1489 1486 1476 1466 1464 1463 1462 1460 1458 1458 1456 1455 1453 1452 1451 1450 1448 1446 1445 1443 1442 1441 1439 1438 1437 1437 1436 1435 1434 1433 1432 1431
1492 1497 1494 1491 1491 1492 1493 1495 1497 1502 1502 1501 1496 1480 1466 1464 1462 1462 1461 1459 1458 1457 1455 1454 1452 1451 1449 1447 1445 1444 1442 1441 1439 1437 1436 1435 1434 1433 1432 1431 1431 1429 1428 1427
1494 1498 1498 1494 1490 1490 1490 1492 1496 1499 1501 1503 1501 1482 1462 1462 1461 1461 1460 1459 1457 1456 1454 1452 1450 1449 1447 1445 1443 1441 1440 1438 1436 1434 1433 1432 1430 1429 1429 1428 1427 1425 1424 1424
1493 1498 1499 1492 1495 1494 1492 1492 1493 1497 1501 1504 1499 1478 1462 1461 1460 1460 1459 1457 1456 1454 1452 1450 1448 1446 1444 1442 1441 1439 1437 1435 1434 1432 1430 1429 1427 1426 1425 1424 1422 1421 1421 1420
1490 1497 1497 1492 1490 1492 1493 1491 1492 1494 1497 1496 1487 1473 1463 1461 1460 1458 1457 1455 1454 1452 1451 1449 1446 1445 1443 1441 1439 1437 1435 1433 1431 1429 1427 1426 1424 1423 1422 1421 1419 1418 1417 1416
1490 1495 1496 1493 1491 1491 1489 1487 1488 1489 1486 1485 1475 1472 1462 1460 1459 1457 1456 1454 1452 1450 1449 1447 1445 1443 1441 1439 1437 1435 1433 1431 1429 1427 1425 1423 1422 1420 1419 1418 1417 1415 1414 1413
1491 1494 1495 1491 1488 1489 1486 1481 1481 1481 1480 1478 1473 1466 1458 1458 1457 1455 1453 1452 1450 1448 1446 1445 1443 1441 1439 1437 1435 1433 1430 1429 1427 1424 1422 1421 1420 1418 1417 1415 1414 1413 1412 1411
1493 1495 1495 1491 1490 1486 1480 1471 1472 1473 1470 1469 1467 1460 1456 1456 1454 1453 1451 1449 1448 1446 1445 1443 1441 1439 1437 1435 1433 1431 1429 1426 1424 1422 1420 1419 1418 1416 1415 1413 1412 1410 1409 1408
1492 1494 1497 1496 1493 1485 1467 1463 1463 1464 1462 1462 1459 1456 1455 1454 1451 1450 1448 1447 1445 1444 1443 1441 1439 1437 1435 1433 1431 1429 1427 1424 1422 1420 1419 1417 1416 1414 1413 1412 1410 1408 1407 1406
1487 1491 1496 1497 1494 1480 1465 1461 1462 1463 1460 1455 1455 1453 1452 1451 1449 1447 1446 1445 1444 1442 1440 1438 1437 1435 1433 1431 1429 1427 1425 1422 1420 1419 1417 1416 1414 1413 1411 1410 1408 1407 1406 1405
1487 1489 1494 1496 1490 1478 1461 1458 1457 1461 1458 1450 1450 1450 1450 1450 1451 1446 1443 1442 1440 1439 1437 1435 1434 1432 1430 1428 1427 1425 1423 1421 1419 1417 1416 1415 1413 1411 1410 1408 1407 1405 1404 1403
1488 1490 1490 1490 1487 1471 1458 1456 1458 1462 1454 1448 1447 1447 1447 1448 1447 1444 1441 1439 1438 1436 1434 1433 1431 1430 1428 1426 1425 1423 1421 1419 1418 1416 1415 1413 1412 1410 1409 1407 1406 1404 1403 1402
1480 1484 1486 1486 1484 1468 1454 1455 1456 1451 1447 1446 1445 1445 1445 1443 1442 1440 1438 1437 1435 1433 1432 1430 1429 1427 1426 1425 1423 1421 1419 1418 1417 1415 1413 1412 1410 1409 1407 1406 1405 1403 1402 1400
1472 1469 1469 1468 1460 1450 1449 1448 1447 1446 1445 1444 1443 1443 1442 1440 1439 1437 1436 1434 1433 1431 1430 1428 1427 1425 1424 1423 1421 1419 1418 1417 1415 1414 1412 1411 1409 1408 1406 1405 1404 1402 1401 1399
1464 1462 1463 1461 1450 1446 1445 1444 1443 1443 1442 1441 1441 1440 1439 1437 1436 1435 1433 1432 1430 1429 1428 1426 1425 1423 1422 1421 1419 1418 1416 1415 1414 1412 1411 1409 1408 1407 1405 1404 1403 1401 1400 1399
1454 1457 1458 1454 1446 1443 1440 1439 1439 1439 1439 1438 1438 1437 1436 1434 1433 1432 1430 1429 1428 1427 1426 1424 1423 1422 1420 1419 1418 1416 1415 1414 1412 1411 1410 1409 1407 1406 1404 1403 1402 1401 1400 1399
1446 1447 1449 1443 1438 1439 1436 1436 1436 1436 1435 1435 1434 1433 1433 1432 1430 1429 1428 1427 1426 1424 1423 1422 1421 1420 1418 1417 1416 1415 1414 1413 1411 1410 1409 1408 1406 1405 1404 1402 1401 1401 1400 1399